COSMOS 2173

导读 | 豆包AI

COSMOS 2173是独联体(CIS)继承苏联航天遗产后,于1991年11月27日发射的“宇宙”系列卫星。该系列多承担军事侦察、电子情报收集等任务,作为冷战末期苏联航天计划收尾产物,体现了后苏联时代空间技术延续,目前已完成在轨使命,相关任务细节因军事属性未完全公开,是美苏太空竞争阶段的代表性航天器。

基本信息
目录编号:
21796
目录名称:
COSMOS 2173
国际标识:
1991-081A
轨道中心:
EARTH
卫星名称:
COSMOS 2173
卫星全名:
--
卫星状态:
在轨 (已飞行12526 天)
发射日期:
1991-11-27 UTC
国别 :
俄罗斯(独联体) (CIS)
星等 :
--
轨道信息
数据来源 国际轨道数据 AOE轨道数据
星历时间 2026-03-13T19:34:12+0800
13小时前
查看轨道信息
2026-03-13T00:00:00+0800
1天前
查看轨道信息
半长轴 7357.12km 7357.127km
偏心率 0.0048033 0.0048026
轨道倾角 82.953° 82.953°
近地点辐角 248.642° 250.861°
升交点赤经 241.623° 242.227°
平近点角 137.617° 59.127°
近地点 943.644km 943.656km
远地点 1014.322km 1014.324km
周期 104.670分钟 104.670分钟
每日圈数 13.757549 13.757529
详细信息
使用方式:
暂无
2D轨道图
3D轨道图
轨道高度分析图
轨道倾角分析图
轨道综合分析图
查看轨道综合分析图